This is the latest recevied weather packets stored in our database for station/object N3LF. If no packets are shown the sender has not sent any weather packets the latest 10 day(s).
| Time | Temp. | Humidity | Pressure | Rain* | Wind** | Luminosity | Snow |
|---|---|---|---|---|---|---|---|
| 1777965459 | 15° C | 76% | 1012.3 hPa | 0 mm | - | 0 W/m² | - |
| 1777965156 | 15.56° C | 75% | 1012.4 hPa | 0 mm | - | 0 W/m² | - |
| 1777964854 | 15.56° C | 74% | 1012.5 hPa | 0 mm | - | 0 W/m² | - |
| 1777964550 | 15.56° C | 74% | 1012.5 hPa | 0 mm | - | 0 W/m² | - |
| 1777964246 | 15.56° C | 73% | 1012.3 hPa | 0 mm | - | 0 W/m² | - |
| 1777963943 | 15.56° C | 74% | 1012.2 hPa | 0 mm | - | 0 W/m² | - |
| 1777963640 | 15.56° C | 76% | 1012.3 hPa | 0 mm | - | 0 W/m² | - |
| 1777963338 | 15.56° C | 75% | 1012.4 hPa | 0 mm | - | 0 W/m² | - |
| 1777963035 | 15.56° C | 74% | 1012.5 hPa | 0 mm | - | 0 W/m² | - |
| 1777962731 | 15.56° C | 74% | 1012.4 hPa | 0 mm | - | 0 W/m² | - |
| 1777962427 | 15.56° C | 73% | 1012.6 hPa | 0 mm | - | 0 W/m² | - |
| 1777962126 | 15.56° C | 73% | 1012.8 hPa | 0 mm | - | 0 W/m² | - |
| 1777961822 | 16.11° C | 72% | 1012.9 hPa | 0 mm | - | 0 W/m² | - |
| 1777961520 | 15.56° C | 72% | 1013 hPa | 0 mm | - | 0 W/m² | - |
| 1777961217 | 16.11° C | 73% | 1012.9 hPa | 0 mm | - | 0 W/m² | - |
| 1777960914 | 16.11° C | 72% | 1012.6 hPa | 0 mm | - | 0 W/m² | - |
| 1777960609 | 16.11° C | 72% | 1012.8 hPa | 0 mm | - | 0 W/m² | - |
| 1777960306 | 16.11° C | 77% | 1012.9 hPa | 0 mm | - | 0 W/m² | - |
| 1777960003 | 16.11° C | 76% | 1012.9 hPa | 0 mm | - | 0 W/m² | - |
| 1777959701 | 16.11° C | 73% | 1012.9 hPa | 0 mm | - | 0 W/m² | - |
| 1777959399 | 16.67° C | 72% | 1013.1 hPa | 0 mm | - | 0 W/m² | - |
| 1777959095 | 16.67° C | 68% | 1012.9 hPa | 0 mm | - | 0 W/m² | - |
| 1777958792 | 17.22° C | 68% | 1013.1 hPa | 0 mm | - | 0 W/m² | - |
| 1777958489 | 17.22° C | 70% | 1013.2 hPa | 0 mm | - | 0 W/m² | - |
| 1777958186 | 16.67° C | 68% | 1013 hPa | 0 mm | - | 0 W/m² | - |
* Rain latest hour (hover to see other rain measurements)
** Current wind speed in m/s (hover to see current wind gust speed)